ROMMA est une association bénévole à but non lucratif. Votre soutien est indispensable : ADHERER à ROMMA ou FAIRE un DON

Chindrieux - (73, Savoie)

Chautagne (260 m)   Longitude: 05°50' E   Latitude: 45°49' N Station partenaire n°74
 

Détail journalier du     <<     >>

Température Precipitation Humidité Pression Vent Dir Rafale Dir. rafale Ensol.
Heure (°C) (mm) (%) (hPa) (km/h) (km/h) (min)
01:00 9.606210141NNE6NNE0
02:00 9.306510141NNE6NNE0
03:00 7.707210142NNE8SE0
04:00 8.207210142SE10SE0
05:00 7.907410141SE5SE0
06:00 7.207710131SE6SE0
07:00 7.507410143NE8NE0
08:00 7.207510142NNE6NNE0
09:00 7.707510141NNE5NNE0
10:00 8.4072101506NNE0
11:00 12.106510152NNE10SSO10
12:00 13.706110144S10SSO50
13:00 16.005210146S15SSE40
14:00 17.004810137S16SE60
15:00 18.404510135S15SSO20
16:00 19.404210123S10SO30
17:00 20.204010111S6S50
18:00 19.404010111S5S40
19:00 18.504210111S6S60
20:00 16.8048101105S40
21:00 15.804910123SE10E0
22:00 14.605210123E8E0
23:00 13.805510122ESE6SSO0
minuit 12.306110132ESE8E0

Graphique du 01-04-2019

 

Serveur OMMA